Birmingham, United Kingdom

6:07 AM GMT on March 23, 2017 (GMT +0000)
Birmingham

Weather History for EGBB - January, 2013

Change the Weather History Date:

Wednesday, January 9, 2013

  Actual Average Record
Temperature  
Mean Temperature 39 °F -  
Max Temperature 46 °F 43 °F 59 °F (2015)
Min Temperature 32 °F 33 °F 23 °F (2009)
Degree Days  
Heating Degree Days 26    
Moisture  
Dew Point 37 °F    
Average Humidity 95    
Maximum Humidity 100    
Minimum Humidity 81    
Precipitation  
Precipitation 0.00 in 0.07 in - ()
Sea Level Pressure  
Sea Level Pressure 30.16 in    
Wind  
Wind Speed 5 mph ()    
Max Wind Speed 10 mph    
Max Gust Speed -    
Visibility 4.1 miles    
Events Fog    
Averages and records for this station are not official NWS values.
T = Trace of Precipitation, MM = Missing Value Source: Averaged Metar Reports

Daily Weather History Graph

Daily Weather History Graph

Search for Another Location

Airport or City:

Trip Planner

Search our weather history database for the weather conditions in past years. The results will help you decide how hot, cold, wet, or windy it might be!

Date:

Astronomy

Jan. 09, 2013 Rise Set
Actual Time 8:14 AM GMT 4:14 PM GMT
Civil Twilight 7:34 AM GMT 4:54 PM GMT
Nautical Twilight 6:50 AM GMT 5:37 PM GMT
Astronomical Twilight 6:09 AM GMT 6:19 PM GMT
Moon 5:38 AM GMT (1/9) 1:59 PM GMT (1/9)
Length of Visible Light 9h 20m
Length of Day
7h 59m
Waning Crescent, 8% of the Moon is Illuminated
Jan 9
Waning Crescent
Jan 11
New
Jan 18
First Quarter
Jan 27
Full
Feb 3
Last Quarter

Hourly Weather History & Observations

Time (GMT) Temp. Windchill Dew Point Humidity Pressure Visibility Wind Dir Wind Speed Gust Speed Precip Events Conditions
12:20 AM 46.4 °F 41.5 °F 44.6 °F 93% 30.18 in 5.6 mi NNW 10.4 mph - N/A   Light Drizzle
12:50 AM 44.6 °F 40.2 °F 42.8 °F 93% 30.18 in 6.2 mi NNW 8.1 mph - N/A   Mostly Cloudy
1:20 AM 44.6 °F 39.7 °F 42.8 °F 93% 30.18 in 6.2 mi NNW 9.2 mph - N/A   Mostly Cloudy
1:50 AM 44.6 °F 40.2 °F 41.0 °F 87% 30.18 in 6.2 mi NNW 8.1 mph - N/A   Mostly Cloudy
2:20 AM 42.8 °F 38.0 °F 41.0 °F 93% 30.18 in 6.2 mi NNW 8.1 mph - N/A   Mostly Cloudy
2:50 AM 39.2 °F 35.0 °F 39.2 °F 100% 30.18 in 5.0 mi NNW 5.8 mph - N/A   Unknown
3:50 AM 39.2 °F 34.2 °F 37.4 °F 93% 30.18 in 3.7 mi NNW 6.9 mph - N/A   Unknown
4:20 AM 37.4 °F 32.8 °F 37.4 °F 100% 30.18 in 3.1 mi NW 5.8 mph - N/A   Mist
4:50 AM 37.4 °F 33.8 °F 37.4 °F 100% 30.18 in 3.1 mi NW 4.6 mph - N/A   Mist
5:20 AM 35.6 °F 31.7 °F 35.6 °F 100% 30.18 in - NW 4.6 mph - N/A   Clear
5:50 AM 35.6 °F - 35.6 °F 100% 30.18 in - North 2.3 mph - N/A   Clear
6:20 AM 35.6 °F - 35.6 °F 100% 30.18 in - Variable 2.3 mph - N/A   Clear
6:50 AM 35.6 °F 31.7 °F 35.6 °F 100% 30.18 in - North 4.6 mph - N/A   Clear
7:20 AM 33.8 °F 28.6 °F 33.8 °F 100% 30.18 in - NW 5.8 mph - N/A   Clear
7:50 AM 35.6 °F - 35.6 °F 100% 30.18 in - NW 2.3 mph - N/A   Clear
8:20 AM 33.8 °F - 33.8 °F 100% 30.21 in - NNW 2.3 mph - N/A   Clear
8:50 AM 35.6 °F - 35.6 °F 100% 30.21 in 6.2 mi Calm Calm - N/A Fog Shallow Fog
9:20 AM 35.6 °F - 35.6 °F 100% 30.21 in 6.2 mi Calm Calm - N/A Fog Shallow Fog
9:50 AM 37.4 °F 34.9 °F 37.4 °F 100% 30.21 in 3.7 mi WNW 3.5 mph - N/A   Unknown
10:50 AM 37.4 °F 33.8 °F 37.4 °F 100% 30.21 in - NW 4.6 mph - N/A   Partly Cloudy
11:20 AM 41.0 °F - 39.2 °F 93% 30.18 in 6.2 mi Variable 2.3 mph - N/A   Partly Cloudy
11:50 AM 42.8 °F 41.1 °F 39.2 °F 87% 30.18 in 6.2 mi Variable 3.5 mph - N/A   Partly Cloudy
12:20 PM 44.6 °F 41.4 °F 39.2 °F 81% 30.18 in 6.2 mi NW 5.8 mph - N/A   Scattered Clouds
12:50 PM 42.8 °F 41.1 °F 39.2 °F 87% 30.15 in 6.2 mi NNW 3.5 mph - N/A   Partly Cloudy
1:20 PM 44.6 °F 42.2 °F 39.2 °F 81% 30.15 in 6.2 mi NNW 4.6 mph - N/A   Partly Cloudy
1:50 PM 44.6 °F 42.2 °F 39.2 °F 81% 30.15 in 6.2 mi NNW 4.6 mph - N/A   Partly Cloudy
2:20 PM 44.6 °F 41.4 °F 39.2 °F 81% 30.15 in 6.2 mi NNW 5.8 mph - N/A   Scattered Clouds
2:50 PM 41.0 °F 38.0 °F 37.4 °F 87% 30.15 in 6.2 mi NNW 4.6 mph - N/A   Partly Cloudy
3:20 PM 41.0 °F 36.4 °F 37.4 °F 87% 30.15 in 6.2 mi NW 6.9 mph - N/A   Partly Cloudy
3:50 PM 39.2 °F 34.2 °F 37.4 °F 93% 30.15 in - NNW 6.9 mph - N/A   Clear
4:20 PM 37.4 °F 33.8 °F 35.6 °F 93% 30.15 in - NNW 4.6 mph - N/A   Clear
4:50 PM 35.6 °F - 33.8 °F 93% 30.15 in 4.3 mi NW 2.3 mph - N/A   Partly Cloudy
5:20 PM 35.6 °F - 35.6 °F 100% 30.12 in 3.7 mi Variable 2.3 mph - N/A   Partly Cloudy
5:50 PM 35.6 °F - 33.8 °F 93% 30.12 in 5.0 mi Calm Calm - N/A   Partly Cloudy
6:20 PM 33.8 °F 30.8 °F 33.8 °F 100% 30.12 in 4.3 mi NNW 3.5 mph - N/A   Partly Cloudy
6:50 PM 32.0 °F - 32.0 °F 100% 30.15 in 4.3 mi Variable 2.3 mph - N/A   Partly Cloudy
7:20 PM 33.8 °F - 33.8 °F 100% 30.12 in 3.7 mi Calm Calm - N/A Fog Fog
7:50 PM 33.8 °F - 33.8 °F 100% 30.12 in 3.1 mi North 2.3 mph - N/A Fog Mostly Cloudy
8:20 PM 33.8 °F 30.8 °F 33.8 °F 100% 30.12 in 2.2 mi NNW 3.5 mph - N/A Fog Mostly Cloudy
8:50 PM 33.8 °F 30.8 °F 33.8 °F 100% 30.12 in 0.3 mi WNW 3.5 mph - N/A Fog Fog
9:20 PM 33.8 °F 30.8 °F 33.8 °F 100% 30.12 in 0.2 mi WNW 3.5 mph - N/A Fog Fog
9:50 PM 33.8 °F 30.8 °F 33.8 °F 100% 30.12 in 0.1 mi Variable 3.5 mph - N/A Fog Fog
10:20 PM 33.8 °F - 33.8 °F 100% 30.09 in 0.1 mi Variable 2.3 mph - N/A Fog Fog
10:50 PM 33.8 °F 30.8 °F 33.8 °F 100% 30.09 in 0.1 mi WNW 3.5 mph - N/A   Unknown
11:20 PM 33.8 °F 30.8 °F 33.8 °F 100% 30.09 in 0.2 mi Variable 3.5 mph - N/A Fog Fog
11:50 PM 33.8 °F - 33.8 °F 100% 30.09 in 0.3 mi NW 2.3 mph - N/A Fog Fog